Find Starlink 32414

NORAD ID: 61667 Int'l Des: 2024-193 Owner: SPXS Country: US Constellation: starlink operational
LEOCIRCULAR

Current View

Loading 3D Globe...

About Starlink 32414

Starlink 32414 (NORAD 61667) is a starlink constellation satellite (v2 mini) launched Oct 26, 2024 by SPXS of US. It operates in LEO, CIRCULAR orbit with a mass of 730.00 kg.

About Starlink 32414

Description loading...

Upcoming Passes

Passes for default location (London). Set your location on the main map for personalized predictions.

Altitude History

Loading altitude history...

Two-Line Element Set

1 61667U 24193G 26168.88161959 .00007839 00000-0 27689-3 0 9997
2 61667 53.1613 345.8274 0001636 92.8587 267.2601 15.30154172 91862
Epoch: Jun 17, 2026 • Age: 13 hours

Current Status

Altitude 475.7 km
Velocity 7.63 km/s
Sub-Earth Point 2.85°N, 97.44°E
Launch Date Oct 26, 2024
Age 1.6 years
Type internet

Technical Details

Classification Payload
Mass 730.00 kg
Dry Mass 700.00 kg
Total Mass 730.00 kg
Length 0.30 m
Diameter 4.10 m
Span 29.00 m
Shape Box + pan
Manufacturer SPXS
Bus Type Starlink V2M
Phase Status In Orbit
Owner/State SPXS/US

Most Searched